SCP
2 2 2 2 3 3 4 4 5 6 6 5 4 4 4 5 5 5 5 4 5 5 5 5 4 2 1 0 0 0 0 0 0 0 0 0 0 0 0 0 0 0 0
2 2 2 2 3 3 4 4 5 5 4 4 3 4 4 5 5 5 4 4 4 5 5 5 4 2 1 0 0 0 0 0 0 0 0 0 0 0 0 0 0 0 0
2 2 2 2 2 3 4 4 4 4 3 3 3 3 4 4 4 4 4 4 4 4 5 4 3 2 1 1 0 0 0 0 0 0 0 0 0 0 0 0 0 0 0
2 2 2 2 2 3 4 5 4 3 2 2 3 3 3 3 4 4 4 3 3 4 4 4 3 2 1 1 0 0 0 0 0 0 0 0 0 0 0 0 0 0 0
3 3 3 2 2 3 4 4 4 3 2 3 3 2 2 2 3 3 4 3 3 3 3 3 3 2 2 1 1 0 0 0 0 0 0 0 0 0 0 0 0 0 0
2 3 3 2 2 3 3 4 4 3 3 3 3 3 2 2 2 3 3 4 4 4 3 3 2 2 2 1 1 0 0 0 0 0 0 0 0 0 0 0 0 0 0
1 2 3 3 3 3 3 4 4 3 3 3 3 3 2 2 2 2 3 3 4 4 3 3 2 2 1 1 1 0 0 0 0 0 0 0 0 0 0 0 0 0 0
0 1 2 2 3 3 3 4 3 3 3 3 2 2 2 2 2 2 2 3 3 3 3 2 2 1 1 0 0 0 0 0 0 0 0 0 0 0 0 0 0 0 0
0 0 1 2 2 3 3 3 3 3 3 2 2 2 2 2 2 2 2 2 2 2 2 2 2 1 0 0 0 0 0 0 0 0 0 0 0 0 0 0 0 0 0
0 0 1 2 2 3 3 3 3 3 3 2 2 2 2 2 2 2 1 2 2 2 2 2 1 1 0 0 0 0 0 0 0 0 0 0 0 0 0 0 0 0 0
0 0 1 2 2 3 3 3 3 3 3 2 2 2 2 2 2 1 1 1 2 2 2 1 1 1 1 0 0 0 0 0 0 0 0 0 0 0 0 0 0 0 0
0 1 1 2 2 3 3 3 3 3 3 2 2 2 1 1 1 1 1 1 2 2 2 1 1 1 1 1 1 0 0 0 0 0 0 0 0 0 0 0 0 0 0
0 0 1 1 2 3 3 3 3 3 3 3 2 2 1 1 1 1 1 1 1 1 1 1 1 1 1 1 1 1 0 0 0 0 0 0 0 0 0 0 0 0 0
0 0 0 1 1 2 3 3 3 3 3 2 2 2 1 1 1 1 1 1 1 1 1 0 0 1 1 1 1 1 0 0 0 0 0 0 0 0 0 0 0 0 0
0 0 0 0 0 1 1 2 3 3 3 2 2 2 2 2 2 2 1 1 1 1 0 0 0 0 0 1 1 0 0 0 0 0 0 0 0 0 0 0 0 0 0
0 0 0 0 0 0 0 1 2 2 2 2 2 2 2 3 2 2 2 1 1 1 0 0 0 0 0 0 0 0 0 0 0 0 0 0 0 0 0 0 0 0 0
0 0 0 0 0 0 0 0 0 1 1 2 2 2 2 3 2 2 2 2 1 1 0 0 0 0 0 0 0 0 0 0 0 0 0 0 0 0 0 0 0 0 0
0 0 0 0 0 0 0 0 0 0 0 1 1 1 2 2 2 2 2 2 1 1 0 0 0 0 0 0 0 0 0 0 0 0 0 0 0 0 0 0 0 0 0
0 0 0 0 0 0 0 0 0 0 0 0 0 1 1 1 1 2 2 1 1 1 0 0 0 0 0 0 0 0 0 0 0 0 0 0 0 0 0 0 0 0 0
0 0 0 0 0 0 0 0 0 0 0 0 0 0 0 1 1 1 1 1 1 1 1 0 0 0 0 0 0 0 0 0 0 0 0 0 0 0 0 0 0 0 0
0 0 0 0 0 0 0 0 0 0 0 0 0 0 0 0 0 0 1 1 1 1 1 1 0 0 0 0 0 0 0 0 0 0 0 0 0 0 0 0 0 0 0
0 0 0 0 0 0 0 0 0 0 0 0 0 0 0 0 0 0 0 0 1 1 1 1 1 0 0 0 0 0 0 0 0 0 0 0 0 0 0 0 0 0 0
0 0 0 0 0 0 0 0 0 0 0 0 0 0 0 0 0 0 0 0 0 1 1 1 1 0 0 0 0 0 0 0 0 0 0 0 0 0 0 0 0 0 0
0 0 0 0 0 0 0 0 0 0 0 0 0 0 0 0 0 0 0 0 0 1 1 1 1 0 0 0 0 0 0 0 0 0 0 0 0 0 0 0 0 0 0
0 0 0 0 0 0 0 0 0 0 0 0 0 0 0 0 0 0 0 0 0 0 0 1 0 0 0 0 0 0 0 0 0 0 0 0 0 0 0 0 0 0 0
0 0 0 0 0 0 0 0 0 0 0 0 0 0 0 0 0 0 0 0 0 0 0 0 0 0 0 0 0 0 0 0 0 0 0 0 0 0 0 0 0 0 0
Wind_Speed
5 4 5 5 5 5 6 7 7 7 6 5 6 6 6 5 5 5 6 7 7 8 7 5 7 6 6 6 7 6 6 4 4 3 2 2 2 1 1 1 1 2 2
5 4 4 4 5 5 6 6 6 7 7 6 6 5 5 5 5 4 5 6 7 8 6 7 6 7 6 7 7 7 5 4 4 3 3 3 3 2 1 1 1 2 2
4 4 3 3 4 4 5 5 6 6 7 7 6 5 5 4 4 5 5 6 7 8 7 7 7 7 6 6 8 8 7 5 4 3 3 3 3 3 3 2 2 2 2
3 3 3 3 3 3 3 4 5 6 6 7 7 9 7 6 6 5 5 6 7 7 7 7 7 7 6 7 7 8 7 7 5 4 2 1 0 2 3 3 3 3 3
2 2 2 2 2 2 3 3 4 5 5 6 8 8 8 6 5 6 6 6 6 7 7 7 7 7 6 7 7 7 7 7 6 5 4 3 2 2 2 3 3 3 3
2 2 1 1 0 1 1 2 3 4 4 6 6 7 8 7 7 8 7 6 5 5 7 7 7 7 6 7 7 7 8 7 7 6 5 4 4 4 3 2 3 2 2
2 2 2 1 1 1 1 2 3 4 4 5 5 6 7 8 8 8 7 6 5 5 7 7 7 6 6 6 6 7 7 7 7 7 6 5 4 3 3 2 2 1 1
2 2 2 1 1 1 1 1 2 3 4 4 4 5 5 4 4 6 6 6 5 5 6 7 7 7 7 6 6 5 6 6 6 7 7 5 5 4 4 3 3 2 2
3 2 2 1 1 1 1 1 1 3 3 4 4 4 5 4 4 4 5 5 4 4 6 7 7 7 7 7 6 5 6 6 6 6 6 5 4 4 4 3 4 3 3
3 3 2 2 2 1 1 1 1 1 2 3 3 2 4 4 4 4 4 5 5 5 6 6 6 6 7 7 7 6 6 6 6 5 6 6 4 4 4 4 4 4 4
3 2 2 3 2 3 2 2 2 1 1 1 3 3 3 4 4 4 4 4 4 5 5 6 6 7 7 7 7 6 6 7 6 6 7 7 6 5 4 4 4 4 3
3 2 3 3 3 3 2 2 2 1 1 0 1 2 2 3 4 4 4 4 4 4 5 5 6 6 6 6 7 7 7 7 7 7 7 7 5 6 4 4 5 4 4
4 3 3 3 3 3 3 3 2 2 1 0 1 1 2 2 3 3 4 4 4 4 5 5 5 6 6 6 7 7 7 7 7 6 7 6 6 6 4 5 4 4 4
5 5 4 4 4 3 2 3 3 3 2 1 0 0 1 2 2 3 3 3 3 4 4 5 5 5 5 6 6 6 6 6 6 6 6 6 6 6 6 5 5 4 4
6 6 5 5 4 4 3 3 3 3 2 1 1 1 1 1 1 2 2 2 3 3 4 4 4 4 4 5 5 6 6 6 5 5 5 5 5 6 5 4 5 5 4
6 6 6 6 5 4 4 4 4 3 2 2 2 2 1 1 0 1 2 2 2 2 3 4 4 4 3 4 6 5 5 5 5 5 4 4 5 5 5 5 5 6 6
6 6 6 6 6 5 4 4 3 3 2 2 2 2 1 1 1 1 1 2 2 2 3 3 3 4 4 5 5 5 5 5 5 5 4 3 3 5 4 4 4 4 5
7 7 6 6 6 5 4 3 3 2 2 2 2 2 1 1 1 1 1 1 1 2 2 3 3 3 3 4 5 4 3 3 4 4 4 4 4 4 4 4 3 3 3
7 7 7 6 5 5 4 3 3 3 2 2 2 2 2 1 1 1 1 1 1 1 1 2 2 3 2 3 4 4 3 2 3 2 3 4 4 4 5 4 4 3 2
7 7 7 6 5 5 4 2 2 3 3 3 3 3 2 1 1 1 1 1 1 1 1 1 1 2 2 3 4 4 3 3 2 2 2 3 3 4 5 5 4 4 3
8 7 7 6 6 5 4 3 3 3 4 4 3 2 2 1 1 1 1 1 1 1 1 1 1 1 2 3 4 4 3 3 3 2 2 2 3 4 3 3 3 4 3
8 7 6 6 6 5 4 3 3 4 3 3 2 2 2 1 1 0 0 0 1 1 1 1 1 0 1 2 3 4 3 2 3 2 2 2 3 3 3 2 3 3 3
7 7 6 6 5 5 4 4 4 4 3 2 2 2 2 1 1 0 1 1 1 1 1 1 1 0 0 1 3 4 4 3 2 2 3 3 3 3 2 3 4 3 2
6 6 6 5 6 6 5 5 4 3 2 2 2 2 1 1 1 1 0 1 1 2 2 2 1 1 1 1 1 2 2 3 2 2 3 3 3 2 2 2 2 2 2
6 5 5 5 6 6 6 5 4 3 2 2 2 1 1 1 1 1 1 1 1 1 2 2 2 2 2 2 2 2 2 2 2 2 2 2 2 2 1 1 1 1 2
6 5 5 5 6 5 5 5 4 3 2 1 1 1 1 0 0 1 2 4 2 2 1 2 2 2 1 2 2 2 3 3 4 2 2 2 2 3 3 2 2 2 2
Wind_Direction
256 251 233 222 211 202 195 189 182 182 176 178 179 179 180 178 175 174 177 180 174 171 169 161 161 166 167 166 162 156 152 146 148 144 141 133 126 129 139 159 154 140 140
271 262 246 223 210 201 199 193 189 187 186 187 185 183 177 180 176 174 180 184 176 172 173 169 168 171 169 168 168 163 160 158 169 172 168 173 177 173 166 177 180 182 174
266 251 240 226 218 210 205 197 194 193 190 183 177 168 167 168 174 180 182 189 183 178 176 176 174 175 175 177 178 177 173 172 178 196 195 195 197 166 172 188 195 197 196
269 258 242 241 237 225 212 200 192 189 188 183 180 180 182 183 183 181 183 186 187 183 180 180 178 177 181 184 184 187 185 180 182 192 223 258 142 194 178 184 197 206 213
277 275 259 259 245 226 199 189 179 178 184 187 184 185 190 187 177 174 180 184 184 185 182 184 183 181 186 189 190 191 192 191 191 191 190 192 188 230 219 203 192 204 210
304 317 303 304 224 177 153 158 165 170 175 183 185 188 187 184 176 178 181 184 182 184 188 188 189 189 189 191 194 198 201 202 199 199 199 197 194 201 208 221 207 209 201
340 337 342 350 71 84 116 143 158 168 176 181 187 190 190 187 187 186 188 186 185 188 192 192 195 196 197 195 195 200 205 206 204 204 207 211 216 204 204 204 199 215 217
6 344 338 353 67 79 95 130 153 169 178 181 188 191 191 190 193 194 192 194 192 190 191 197 198 197 196 196 195 198 204 207 209 210 210 212 214 206 200 204 192 208 220
353 346 348 8 47 67 90 111 152 168 178 183 182 189 188 189 191 193 198 197 196 190 190 192 194 195 195 197 195 200 202 207 211 212 213 216 214 210 209 204 204 214 225
343 349 357 14 13 15 41 66 100 132 164 185 184 191 193 194 196 194 197 197 193 190 189 192 195 196 196 198 199 203 206 207 210 210 212 216 214 208 203 204 214 222 226
335 355 17 19 16 17 27 40 60 82 120 175 183 187 194 195 195 195 198 198 195 192 193 194 197 198 198 198 200 202 202 207 208 209 213 215 213 207 204 205 207 213 215
343 20 29 26 19 13 14 22 27 36 41 182 183 190 204 197 192 193 199 196 195 192 195 195 199 200 199 199 200 201 200 205 208 209 211 214 208 211 209 206 209 211 211
7 16 24 19 13 5 359 6 5 1 355 335 194 185 204 205 198 199 200 199 198 194 190 193 198 199 199 201 201 204 203 206 207 207 209 208 202 206 207 208 210 210 208
8 9 10 6 5 359 352 352 349 355 350 341 308 233 227 220 220 208 202 201 200 198 195 195 200 201 200 201 200 202 204 208 210 207 208 209 206 208 204 204 206 203 204
3 3 359 356 356 353 350 343 343 348 344 341 345 322 286 224 222 215 205 201 200 202 199 197 198 199 200 201 202 203 202 203 206 207 208 208 207 208 205 201 202 198 200
351 351 351 349 349 344 338 338 342 342 341 337 331 335 331 329 254 233 202 195 193 190 189 195 196 198 199 191 197 202 201 199 201 206 210 203 197 194 194 197 202 204 204
340 341 340 338 336 330 324 323 327 331 335 338 335 336 331 312 283 248 209 196 197 188 187 184 188 197 194 182 190 196 200 201 203 205 205 200 194 194 198 192 195 211 216
331 330 329 329 330 328 323 324 330 336 335 336 338 333 328 319 297 255 233 225 200 190 189 190 191 191 183 175 183 183 194 200 201 203 203 200 193 187 189 188 193 209 221
319 318 319 319 323 326 324 327 336 341 339 335 333 326 321 307 293 269 236 223 202 193 187 187 182 181 177 167 174 176 177 181 192 197 199 202 193 178 178 179 180 192 213
319 321 321 320 324 328 330 330 330 332 326 320 316 314 310 289 274 271 265 231 198 186 166 169 179 186 187 169 173 180 180 181 184 186 191 189 185 177 183 189 186 194 205
321 324 322 323 324 327 330 319 319 317 315 313 312 319 318 298 283 281 275 231 177 164 160 154 178 192 188 172 175 188 194 185 180 182 190 185 175 179 184 203 206 198 192
324 325 321 320 325 331 326 312 309 312 316 316 319 326 328 326 321 258 194 200 186 173 180 169 191 195 173 162 167 174 188 187 181 187 190 173 167 176 179 190 179 174 176
318 320 317 318 328 332 328 312 310 315 319 324 325 332 346 359 16 149 160 172 204 196 196 197 195 184 149 136 140 158 166 172 185 175 159 160 164 173 172 166 172 185 194
313 316 319 322 324 329 328 319 315 315 320 328 331 337 359 18 29 14 234 198 205 207 202 202 197 191 193 186 168 166 163 162 167 163 147 145 148 164 154 164 183 203 206
312 314 313 313 316 323 327 327 325 325 324 328 330 344 7 21 33 27 10 318 300 263 231 222 212 207 209 201 183 192 191 191 183 165 163 173 176 180 184 191 196 198 200
310 314 314 312 315 321 326 329 330 331 324 328 334 338 346 13 29 53 35 31 20 19 344 296 265 274 247 194 192 198 197 184 170 172 187 195 198 202 204 203 205 214 221